15min,AgWx,beryljct,423,06AUG2019:00:00:00,66.6,12.92,64.0,64.8,64.7,67.1,61.4,45,58,37,0.899,42.8,46.6,39.9,3.179,4.2,189,5.4,5.3,0.00022,0.00035,73.6,73.7,10,0,.,.,16.34,0.00,0.00
15min,AgWx,beryljct,423,06AUG2019:00:15:00,65.9,12.92,61.5,62.8,65.5,66.8,62.8,41,53,37,1.036,41.0,45.8,39.4,1.14,2.7,185,1.7,3.9,0.00006,0.00014,73.4,73.6,11,0,.,.,16.34,0.00,0.00
15min,AgWx,beryljct,423,06AUG2019:00:30:00,65.1,12.92,58.9,59.7,61.5,62.8,59.7,56,59,51,1.018,45.5,46.9,43.2,2.477,1.9,287,75,4.0,-0.00010,-0.00011,73.1,73.6,10,0,.,.,16.34,0.00,0.00
15min,AgWx,beryljct,423,06AUG2019:00:45:00,64.2,12.91,61.1,61.8,61.4,63.0,59.2,52,60,46,0.951,43.4,45.6,41.9,1.359,2.2,347,11,4.2,-0.00005,-0.00003,72.8,73.5,11,0,.,.,16.34,0.00,0.00
15min,AgWx,beryljct,423,06AUG2019:01:00:00,63.5,12.89,59.7,60.3,61.4,62.2,60.3,52,56,47,0.997,43.5,45.1,41.4,5.459,2.6,38,37,6.9,-0.00001,0.00003,72.6,73.4,10,0,.,.,16.34,0.00,0.00
15min,AgWx,beryljct,423,06AUG2019:01:15:00,62.9,12.9,59.0,59.6,59.3,61.1,57.6,59,65,53,1.049,45.0,46.0,43.8,1.622,2.0,73,25,5.9,-0.00010,-0.00010,72.3,73.4,11,0,.,.,16.34,0.00,0.00
15min,AgWx,beryljct,423,06AUG2019:01:30:00,62.3,12.89,61.1,60.1,60.2,63.0,58.1,60,70,49,1.037,46.3,48.6,43.6,5.217,1.7,64,51,5.2,-0.00014,-0.00017,72.0,73.3,11,0,.,.,16.34,0.00,0.00
15min,AgWx,beryljct,423,06AUG2019:01:45:00,61.8,12.89,62.9,62.7,60.7,62.7,59.0,54,61,46,0.884,43.7,45.9,41.4,1.973,5.2,332,16,8.6,0.00021,0.00031,71.8,73.2,11,0,.,.,16.34,0.00,0.00
15min,AgWx,beryljct,423,06AUG2019:02:00:00,61.6,12.88,61.3,60.7,61.6,63.7,59.2,49,59,42,0.919,42.1,45.0,40.3,0,1.1,324,23,3.5,-0.00020,-0.00027,71.5,73.1,10,0,.,.,16.34,0.00,0.00
15min,AgWx,beryljct,423,06AUG2019:02:15:00,61.3,12.88,64.5,63.1,61.9,63.1,60.6,47,52,42,0.834,41.3,43.3,39.9,1.71,0.8,303,0.1,2.5,-0.00025,-0.00035,71.3,73.0,11,0,.,.,16.34,0.00,0.00
15min,AgWx,beryljct,423,06AUG2019:02:30:00,61.2,12.87,64.5,63.7,63.5,65.1,61.4,42,51,36,0.806,39.6,43.5,37.6,1.293,1.8,313,9.4,4.1,-0.00008,-0.00008,71.1,72.9,11,0,.,.,16.34,0.00,0.00
15min,AgWx,beryljct,423,06AUG2019:02:45:00,61.2,12.86,65.7,66.4,63.3,66.4,60.7,43,53,35,0.781,40.1,43.9,37.0,2.083,1.6,316,0.1,2.7,-0.00011,-0.00012,70.9,72.8,11,0,.,.,16.34,0.00,0.00
15min,AgWx,beryljct,423,06AUG2019:03:00:00,60.9,12.87,60.4,59.1,60.0,66.4,58.2,58,64,36,0.860,45.0,47.0,38.6,3.595,1.2,317,0.5,4.3,-0.00019,-0.00026,70.6,72.8,10,0,.,.,16.34,0.00,0.00
15min,AgWx,beryljct,423,06AUG2019:03:15:00,60.4,12.86,58.7,58.3,58.5,60.1,56.9,53,62,46,0.903,41.2,44.4,38.6,1.71,2.5,320,0.9,3.5,-0.00002,0.00001,70.4,72.6,10,0,.,.,16.34,0.00,0.00
15min,AgWx,beryljct,423,06AUG2019:03:30:00,59.7,12.85,53.7,54.9,57.8,59.0,54.9,56,68,47,0.996,41.9,44.5,39.0,2.126,1.5,19,46,5.2,-0.00015,-0.00019,70.1,72.6,10,0,.,.,16.34,0.00,0.00
15min,AgWx,beryljct,423,06AUG2019:03:45:00,58.7,12.86,56.0,55.0,54.2,55.0,53.6,66,72,61,0.895,43.2,45.3,41.4,2.521,1.7,74,0.7,3.6,-0.00015,-0.00020,69.9,72.5,10,0,.,.,16.34,0.00,0.00
15min,AgWx,beryljct,423,06AUG2019:04:00:00,57.9,12.85,54.6,55.2,56.9,58.7,55.1,57,70,48,1.046,41.9,45.8,38.9,0.044,2.8,258,101,3.7,-0.00002,0.00001,69.7,72.4,11,0,.,.,16.34,0.00,0.00
15min,AgWx,beryljct,423,06AUG2019:04:15:00,57.3,12.85,52.8,53.9,55.2,56.3,53.9,70,75,64,1.057,45.7,46.9,43.9,3.223,0.9,153,39,5.5,-0.00024,-0.00035,69.5,72.3,11,0,.,.,16.34,0.00,0.00
15min,AgWx,beryljct,423,06AUG2019:04:30:00,56.5,12.85,53.5,52.9,52.8,53.7,52.4,73,79,68,0.937,44.3,46.6,42.7,1.228,1.5,147,4.9,4.4,-0.00018,-0.00023,69.3,72.2,10,0,.,.,16.34,0.00,0.00
15min,AgWx,beryljct,423,06AUG2019:04:45:00,55.9,12.84,56.9,56.5,54.2,56.5,52.9,63,68,52,0.920,41.8,43.0,38.7,0,0.9,148,0.1,1.4,-0.00023,-0.00032,69.1,72.1,10,0,.,.,16.34,0.00,0.00
15min,AgWx,beryljct,423,06AUG2019:05:00:00,55.6,12.83,55.9,54.9,55.3,56.7,54.2,66,72,59,0.984,44.3,45.4,42.6,0.899,0.3,148,0.0,1.0,0.00003,0.00005,68.9,72.0,11,0,.,.,16.34,0.00,0.00
15min,AgWx,beryljct,423,06AUG2019:05:15:00,55.4,12.84,56.2,55.6,56.1,61.4,53.7,64,79,41,0.904,43.9,47.4,37.6,3.639,2.1,154,56,4.7,0.00021,0.00037,68.7,71.9,11,0,.,.,16.34,0.00,0.00
15min,AgWx,beryljct,423,06AUG2019:05:30:00,55.2,12.84,57.3,56.2,55.4,56.2,54.8,63,68,59,0.975,42.9,44.3,41.4,0,0.8,311,0.1,3.5,0.00010,0.00017,68.5,71.8,10,0,.,.,16.34,0.00,0.00
15min,AgWx,beryljct,423,06AUG2019:05:45:00,55.1,12.84,52.9,52.7,55.0,56.6,52.7,69,81,60,1.103,44.9,47.2,43.0,0.636,0.8,311,0.1,1.3,0.00010,0.00016,68.3,71.7,11,4,.,.,16.34,0.00,0.00
15min,AgWx,beryljct,423,06AUG2019:06:00:00,54.9,12.86,53.6,53.4,53.3,54.2,52.3,68,82,62,0.888,42.9,47.3,40.6,0,0.9,311,0.1,1.5,0.00024,0.00031,68.1,71.6,11,25,.,.,16.34,0.00,0.00
15min,AgWx,beryljct,423,06AUG2019:06:15:00,55.0,12.88,55.2,54.7,54.4,55.0,53.4,64,74,57,1.023,42.3,46.5,40.1,0,0.0,312,0.0,0.5,0.00038,0.00041,67.9,71.5,10,65,.,.,16.34,0.00,0.00
15min,AgWx,beryljct,423,06AUG2019:06:30:00,55.9,12.87,56.2,55.6,55.1,56.0,54.7,73,83,64,1.203,46.5,49.7,43.2,1.885,0.5,312,0.0,1.9,0.00058,0.00065,67.7,71.4,10,105,.,.,16.34,0.00,0.00
15min,AgWx,beryljct,423,06AUG2019:06:45:00,57.6,12.92,58.3,58.3,56.9,58.3,55.6,71,79,66,1.145,47.5,49.3,45.7,1.513,1.8,313,1.0,2.9,0.00090,0.00106,67.5,71.3,11,154,.,.,16.34,0.00,0.00
15min,AgWx,beryljct,423,06AUG2019:07:00:00,59.5,12.96,59.2,59.2,58.4,59.2,58.2,76,80,70,1.276,51.0,52.3,48.4,3.003,1.9,66,47,4.5,0.00104,0.00120,67.4,71.2,10,174,.,.,16.34,0.00,0.00
15min,AgWx,beryljct,423,06AUG2019:07:15:00,61.1,12.99,61.8,61.3,60.2,61.3,59.2,73,76,70,1.358,51.6,53.4,50.5,1.798,2.5,114,0.6,3.7,0.00133,0.00155,67.2,71.1,10,217,.,.,16.33,0.00,0.00
15min,AgWx,beryljct,423,06AUG2019:07:30:00,63.1,13.04,64.0,63.9,62.9,63.9,61.3,70,76,65,1.378,52.8,54.3,51.4,1.578,1.0,114,1.0,1.8,0.00154,0.00171,67.1,71.0,10,250,.,.,16.33,0.00,0.00
15min,AgWx,beryljct,423,06AUG2019:07:45:00,65.3,13.1,65.4,65.3,64.8,65.3,63.9,66,70,61,1.438,53.0,55.2,51.1,0,0.9,118,0.0,1.8,0.00170,0.00188,67.0,70.9,11,266,.,.,16.33,0.00,0.00
15min,AgWx,beryljct,423,06AUG2019:08:00:00,67.7,13.26,68.5,67.8,66.5,67.8,65.3,64,69,59,1.467,54.1,55.2,52.5,0.767,0.7,113,3.1,2.3,0.00237,0.00258,67.0,70.8,11,379,.,.,16.33,0.00,0.00
15min,AgWx,beryljct,423,06AUG2019:08:15:00,70.8,13.46,70.3,70.1,69.2,70.1,67.9,57,64,52,1.334,53.3,55.6,51.1,0.022,0.6,110,0.0,1.6,0.00280,0.00305,67.0,70.7,10,437,.,.,16.33,0.00,0.00
15min,AgWx,beryljct,423,06AUG2019:08:30:00,74.0,13.72,71.8,72.0,71.3,72.2,70.2,54,57,51,1.482,53.9,56.2,52.3,1.6,0.3,110,0.0,1.6,0.00321,0.00345,67.1,70.6,10,494,.,.,16.32,0.00,0.00
15min,AgWx,beryljct,423,06AUG2019:08:45:00,76.9,13.99,76.2,75.8,73.5,75.9,72.1,45,57,36,1.079,50.5,56.2,46.0,0,0.3,110,0.0,1.3,0.00350,0.00377,67.1,70.5,10,530,.,.,16.32,0.00,0.00
15min,AgWx,beryljct,423,06AUG2019:09:00:00,80.0,14,77.0,77.9,76.7,78.0,75.7,42,49,36,1.297,52.0,56.1,46.9,1.118,0.3,110,0.0,1.2,0.00414,0.00446,67.3,70.5,10,611,.,.,16.32,0.00,0.00
15min,AgWx,beryljct,423,06AUG2019:09:15:00,83.4,13.89,80.3,80.6,79.4,80.6,77.7,39,43,33,1.353,52.0,55.2,48.4,1.425,0.6,87,29,2.4,0.00451,0.00490,67.5,70.4,10,646,.,.,16.31,0.00,0.00
15min,AgWx,beryljct,423,06AUG2019:09:30:00,85.1,13.86,78.9,79.4,79.5,80.6,79.0,43,52,32,1.438,54.8,60.5,47.9,2.587,1.9,66,22,3.7,0.00414,0.00468,67.8,70.3,10,555,.,.,16.31,0.00,0.00
15min,AgWx,beryljct,423,06AUG2019:09:45:00,86.3,13.88,81.7,81.6,80.1,81.6,79.3,44,50,37,1.593,56.0,59.6,52.3,3.091,2.6,108,7.9,3.8,0.00544,0.00615,68.1,70.2,10,746,.,.,16.30,0.00,0.00
15min,AgWx,beryljct,423,06AUG2019:10:00:00,88.0,13.78,82.7,83.5,82.3,83.7,81.6,38,43,30,1.181,54.4,57.4,49.0,1.535,1.6,115,3.2,2.6,0.00503,0.00562,68.4,70.2,10,674,.,.,16.30,0.00,0.00
15min,AgWx,beryljct,423,06AUG2019:10:15:00,89.6,13.8,84.1,85.0,84.3,85.6,83.3,30,41,25,1.045,49.6,57.2,44.9,1.096,1.0,117,0.6,2.0,0.00543,0.00598,68.9,70.1,10,740,.,.,16.30,0.00,0.00
15min,AgWx,beryljct,423,06AUG2019:10:30:00,91.6,13.78,84.7,84.9,85.6,86.5,84.8,27,31,25,1.119,47.9,51.5,46.1,2.302,0.8,83,19,3.8,0.00543,0.00594,69.3,70.1,10,734,.,.,16.30,0.00,0.00
15min,AgWx,beryljct,423,06AUG2019:10:45:00,92.3,13.69,84.5,85.0,85.0,85.4,84.6,36,42,28,1.629,54.8,59.7,47.8,5.196,4.0,71,10,5.5,0.00613,0.00717,69.8,70.0,10,772,.,.,16.30,0.00,0.00
15min,AgWx,beryljct,423,06AUG2019:11:00:00,92.3,13.33,85.9,86.2,85.7,86.3,84.9,37,41,31,1.422,56.1,59.1,51.4,6.971,5.5,102,19,7.8,0.00676,0.00805,70.3,70.0,10,836,.,.,16.30,0.00,0.00
15min,AgWx,beryljct,423,06AUG2019:11:15:00,92.2,13.37,86.2,86.4,86.2,86.6,85.7,32,38,26,1.359,52.7,57.4,47.3,7.629,5.9,75,15,8.4,0.00678,0.00819,70.9,70.0,10,815,.,.,16.30,0.00,0.00
15min,AgWx,beryljct,423,06AUG2019:11:30:00,92.0,13.4,86.1,86.9,85.9,86.9,85.3,31,38,24,1.098,51.7,57.4,45.6,7.168,8.0,116,20,11.5,0.00643,0.00814,71.4,70.0,10,714,.,.,16.30,0.00,0.00
15min,AgWx,beryljct,423,06AUG2019:11:45:00,92.0,13.31,85.6,86.5,88.2,89.5,86.3,24,38,18,1.280,46.4,57.5,40.4,10.65,8.0,169,22,12.0,0.00674,0.00864,72.0,70.1,10,716,.,.,16.30,0.00,0.00
15min,AgWx,beryljct,423,06AUG2019:12:00:00,91.6,13.37,88.0,88.2,86.9,88.4,85.7,26,31,20,0.958,47.5,51.5,42.3,8.64,8.3,166,20,14.7,0.00587,0.00770,72.5,70.1,10,582,.,.,16.30,0.00,0.00
15min,AgWx,beryljct,423,06AUG2019:12:15:00,91.6,13.33,87.1,86.3,87.8,89.6,86.0,24,31,17,1.059,47.0,51.7,39.1,12.12,6.8,202,20,12.1,0.00556,0.00718,73.0,70.1,10,562,.,.,16.31,0.00,0.00
15min,AgWx,beryljct,423,06AUG2019:12:30:00,91.7,13.36,88.7,88.9,88.2,89.7,86.3,24,38,20,1.153,47.1,58.9,42.3,13.59,8.3,192,17,13.9,0.00723,0.00919,73.4,70.2,10,797,.,.,16.30,0.00,0.00
15min,AgWx,beryljct,423,06AUG2019:12:45:00,92.0,13.33,90.0,88.7,87.8,89.1,86.7,25,33,19,0.963,47.3,54.2,40.6,13.39,8.7,191,16,17.0,0.00612,0.00806,73.9,70.3,11,611,.,.,16.31,0.00,0.00
15min,AgWx,beryljct,423,06AUG2019:13:00:00,92.3,13.37,90.7,88.9,88.2,89.4,86.6,25,29,20,1.205,47.8,51.4,43.5,9.8,10.1,201,12,15.6,0.00807,0.01037,74.2,70.4,10,897,.,.,16.31,0.00,0.00
15min,AgWx,beryljct,423,06AUG2019:13:15:00,91.8,13.33,85.3,87.2,86.6,89.2,85.0,26,31,21,1.005,47.1,51.3,41.9,12.47,10.3,211,15,16.6,0.00655,0.00872,74.6,70.5,10,656,.,.,16.31,0.00,0.00
15min,AgWx,beryljct,423,06AUG2019:13:30:00,91.3,13.33,88.1,87.8,86.9,89.0,85.6,25,30,19,1.011,46.7,50.7,41.9,12.52,10.8,210,19,17.8,0.00733,0.00964,74.9,70.5,10,779,.,.,16.30,0.00,0.00
15min,AgWx,beryljct,423,06AUG2019:13:45:00,91.3,13.33,88.7,87.9,87.3,88.1,86.0,23,27,20,0.933,44.9,49.4,41.6,14.71,12.2,197,15,19.4,0.00706,0.00961,75.3,70.7,10,683,.,.,16.31,0.00,0.00
15min,AgWx,beryljct,423,06AUG2019:14:00:00,90.9,13.32,87.1,86.8,86.6,88.5,84.9,22,26,19,0.960,43.2,46.7,40.1,13.35,13.3,197,14,19.0,0.00655,0.00924,75.6,70.8,10,567,.,.,16.31,0.00,0.00
15min,AgWx,beryljct,423,06AUG2019:14:15:00,90.7,13.3,88.1,87.8,87.2,88.3,86.3,22,26,19,0.833,44.1,47.5,39.8,12.5,12.6,189,12,17.8,0.00681,0.00942,75.9,70.9,10,636,.,.,16.31,0.00,0.00
15min,AgWx,beryljct,423,06AUG2019:14:30:00,90.7,13.4,85.3,86.4,87.3,88.1,86.0,22,26,18,1.061,43.7,47.9,39.1,10.65,13.0,188,15,20.8,0.00663,0.00930,76.1,71.0,11,596,.,.,16.31,0.00,0.00
15min,AgWx,beryljct,423,06AUG2019:14:45:00,90.5,13.31,86.7,86.6,86.9,88.1,86.2,24,29,21,1.055,45.8,50.3,42.6,17.49,12.8,191,11,19.3,0.00636,0.00890,76.4,71.2,11,575,.,.,16.31,0.00,0.00
15min,AgWx,beryljct,423,06AUG2019:15:00:00,90.1,13.36,86.8,87.2,86.6,87.9,85.4,24,28,22,1.073,45.7,48.3,43.7,11.27,12.5,190,12,21.0,0.00571,0.00818,76.5,71.3,10,472,.,.,16.31,0.00,0.00
15min,AgWx,beryljct,423,06AUG2019:15:15:00,89.9,13.37,85.9,86.7,86.6,87.4,86.0,25,27,23,1.081,46.9,48.8,44.5,14.69,12.2,193,10,19.1,0.00581,0.00820,76.7,71.4,10,521,.,.,16.31,0.00,0.00
15min,AgWx,beryljct,423,06AUG2019:15:30:00,89.8,13.38,86.1,86.7,86.7,87.4,85.8,25,27,22,1.076,46.5,48.2,44.0,10.65,11.5,187,14,18.0,0.00550,0.00780,76.9,71.6,10,486,.,.,16.31,0.00,0.00
15min,AgWx,beryljct,423,06AUG2019:15:45:00,89.6,13.38,86.6,85.9,86.5,87.2,85.4,25,30,23,1.013,46.9,50.5,44.7,12.85,11.5,178,13,17.0,0.00503,0.00726,77.0,71.7,10,415,.,.,16.31,0.00,0.00
15min,AgWx,beryljct,423,06AUG2019:16:00:00,89.2,13.42,85.0,86.5,86.2,86.8,85.3,26,28,24,1.086,46.9,49.1,45.4,10,11.6,184,12,17.9,0.00475,0.00699,77.1,71.8,10,369,.,.,16.31,0.00,0.00
15min,AgWx,beryljct,423,06AUG2019:16:15:00,88.7,13.38,81.2,83.2,85.2,86.3,83.2,28,32,25,1.243,48.0,50.5,45.4,7.366,10.1,201,13,14.4,0.00406,0.00598,77.2,71.9,10,315,.,.,16.31,0.00,0.00
15min,AgWx,beryljct,423,06AUG2019:16:30:00,87.8,13.44,84.5,84.2,84.3,85.4,82.6,28,33,25,1.071,47.5,50.8,45.3,13.53,11.1,205,13,17.1,0.00396,0.00597,77.3,72.0,10,288,.,.,16.31,0.00,0.00
15min,AgWx,beryljct,423,06AUG2019:16:45:00,87.0,13.43,84.0,83.7,83.8,85.0,83.0,29,31,26,1.098,48.0,49.7,45.8,11,10.4,215,14,15.1,0.00357,0.00545,77.3,72.1,10,254,.,.,16.31,0.00,0.00
15min,AgWx,beryljct,423,06AUG2019:17:00:00,86.2,13.45,83.8,83.8,83.2,84.2,82.2,29,33,27,1.078,48.0,50.2,45.7,10.06,9.7,207,12,13.3,0.00320,0.00494,77.3,72.2,10,231,.,.,16.31,0.00,0.00
15min,AgWx,beryljct,423,06AUG2019:17:15:00,85.6,13.35,83.1,82.5,83.1,84.0,82.3,29,32,26,1.121,47.9,49.7,45.9,9.05,9.0,208,9.1,12.9,0.00278,0.00440,77.3,72.3,10,188,.,.,16.32,0.00,0.00
15min,AgWx,beryljct,423,06AUG2019:17:30:00,85.2,13.24,84.8,84.2,83.5,84.3,82.6,28,29,25,1.036,46.7,47.8,44.9,10.39,9.4,198,11,14.5,0.00262,0.00431,77.3,72.4,10,138,.,.,16.31,0.00,0.00
15min,AgWx,beryljct,423,06AUG2019:17:45:00,84.9,13.19,83.0,83.0,83.4,84.3,82.8,27,29,26,1.039,46.1,47.6,44.9,11.77,9.9,206,14,13.4,0.00247,0.00424,77.2,72.5,10,114,.,.,16.32,0.00,0.00
15min,AgWx,beryljct,423,06AUG2019:18:00:00,84.5,13.23,83.1,82.9,82.9,83.4,82.1,26,29,25,0.966,45.0,46.4,43.7,12.01,10.4,216,8.2,14.3,0.00230,0.00413,77.2,72.6,10,101,.,.,16.32,0.00,0.00
15min,AgWx,beryljct,423,06AUG2019:18:15:00,84.0,13.19,82.7,82.9,82.6,83.3,82.1,25,28,23,0.897,43.7,46.0,41.2,8.26,9.1,214,8.5,12.5,0.00197,0.00363,77.1,72.7,10,88,.,.,16.32,0.00,0.00
15min,AgWx,beryljct,423,06AUG2019:18:30:00,83.6,13.16,82.7,83.2,82.8,83.4,82.2,24,26,22,0.932,42.5,43.9,40.7,7.432,7.7,197,8.2,10.1,0.00155,0.00301,77.0,72.8,10,68,.,.,16.32,0.00,0.00
15min,AgWx,beryljct,423,06AUG2019:18:45:00,83.3,13.14,82.9,82.6,82.6,83.2,81.9,24,26,23,0.893,42.5,43.9,40.8,13.26,8.4,199,7.6,13.3,0.00138,0.00188,76.8,72.9,10,53,.,.,16.32,0.00,0.00
15min,AgWx,beryljct,423,06AUG2019:19:00:00,82.9,13.1,81.3,81.0,82.2,82.7,81.0,25,27,23,0.978,42.6,44.2,41.4,8.46,9.7,215,7.3,13.8,0.00146,0.00195,76.7,72.9,10,35,.,.,16.32,0.00,0.00
15min,AgWx,beryljct,423,06AUG2019:19:15:00,82.1,13.08,79.9,79.8,80.4,81.1,79.6,27,28,25,0.931,43.1,44.1,42.1,6.84,6.6,214,6.0,8.8,0.00099,0.00140,76.5,73.0,10,12,.,.,16.32,0.00,0.00
15min,AgWx,beryljct,423,06AUG2019:19:30:00,81.3,13.07,79.1,79.7,79.8,80.2,79.5,27,28,26,0.939,42.7,43.7,42.0,5.064,6.5,214,7.4,8.6,0.00094,0.00134,76.4,73.0,10,4,.,.,16.32,0.00,0.00
15min,AgWx,beryljct,423,06AUG2019:19:45:00,80.6,13.08,79.1,79.4,79.5,79.9,79.0,27,28,26,0.921,42.7,43.7,41.7,3.091,5.5,196,8.7,7.5,0.00078,0.00115,76.2,73.1,10,1,.,.,16.32,0.00,0.00
15min,AgWx,beryljct,423,06AUG2019:20:00:00,79.6,13.07,76.3,75.9,76.1,79.3,75.4,36,39,27,1.076,47.4,48.8,42.7,6.84,5.9,158,8.5,7.7,0.00068,0.00098,76.1,73.1,10,0,.,.,16.32,0.00,0.00
15min,AgWx,beryljct,423,06AUG2019:20:15:00,78.6,13.05,77.8,77.2,76.7,77.7,75.9,32,35,30,0.986,45.0,46.5,43.4,3.814,5.1,171,5.3,6.3,0.00064,0.00094,75.9,73.2,10,0,.,.,16.32,0.00,0.00
15min,AgWx,beryljct,423,06AUG2019:20:30:00,77.9,13.05,77.5,77.5,76.4,77.5,75.6,33,35,30,0.964,45.0,46.0,43.6,5.327,4.9,178,7.2,6.1,0.00060,0.00089,75.7,73.2,10,0,.,.,16.32,0.00,0.00
15min,AgWx,beryljct,423,06AUG2019:20:45:00,77.6,13.04,78.6,78.0,77.4,78.0,76.6,31,33,29,0.946,44.3,45.8,43.1,3.968,5.2,163,6.5,7.5,0.00068,0.00099,75.5,73.2,11,0,.,.,16.32,0.01,0.00
15min,AgWx,beryljct,423,06AUG2019:21:00:00,77.4,13.03,76.5,76.5,77.2,78.1,76.1,32,36,29,1.043,45.0,47.3,43.0,4.165,2.5,247,70,6.2,0.00024,0.00042,75.3,73.2,10,0,.,.,16.32,0.00,0.00
15min,AgWx,beryljct,423,06AUG2019:21:15:00,77.2,13.03,77.3,78.1,77.6,78.3,76.5,29,33,28,0.940,43.2,45.4,42.2,4.911,5.2,229,8.7,7.5,0.00069,0.00101,75.1,73.2,10,0,.,.,16.32,0.00,0.00
15min,AgWx,beryljct,423,06AUG2019:21:30:00,77.1,13.03,76.9,77.0,77.5,78.3,76.5,29,31,27,0.941,42.9,43.7,41.3,5.174,5.5,225,5.8,9.2,0.00074,0.00107,74.9,73.2,10,0,.,.,16.32,0.00,0.00
15min,AgWx,beryljct,423,06AUG2019:21:45:00,76.7,13.02,77.1,77.4,76.6,78.0,75.7,29,32,25,0.865,41.8,44.2,39.2,5.59,6.1,238,6.6,11.9,0.00080,0.00114,74.6,73.2,10,0,.,.,16.32,0.00,0.00
15min,AgWx,beryljct,423,06AUG2019:22:00:00,76.6,13,77.6,77.5,77.3,77.7,76.9,27,28,26,0.851,40.9,41.7,40.2,6.971,6.1,228,12,8.8,0.00083,0.00119,74.2,73.2,11,0,.,.,16.32,0.00,0.00
15min,AgWx,beryljct,423,06AUG2019:22:15:00,76.9,13.01,77.6,78.2,78.0,78.7,77.4,26,28,25,0.865,40.7,41.9,39.6,5.415,6.8,234,8.7,9.9,0.00094,0.00132,73.9,73.2,11,0,.,.,16.32,0.00,0.00
15min,AgWx,beryljct,423,06AUG2019:22:30:00,77.2,13,77.0,77.5,78.1,78.6,77.5,26,27,25,0.877,40.7,41.4,39.6,5.217,6.8,236,8.4,10.2,0.00094,0.00133,73.5,73.1,10,0,.,.,16.32,0.00,0.00
15min,AgWx,beryljct,423,06AUG2019:22:45:00,77.2,13,75.7,75.9,77.0,77.8,75.8,28,30,26,0.899,41.4,42.5,39.9,5.612,5.8,249,8.7,9.5,0.00078,0.00112,73.2,73.1,11,0,.,.,16.32,0.00,0.00
15min,AgWx,beryljct,423,06AUG2019:23:00:00,76.5,12.99,74.4,74.4,74.8,76.0,74.3,31,32,29,0.908,42.3,42.9,41.8,5.502,5.3,261,4.5,7.5,0.00065,0.00095,72.9,73.0,10,0,.,.,16.32,0.00,0.00
15min,AgWx,beryljct,423,06AUG2019:23:15:00,75.5,12.98,74.2,74.1,74.0,74.5,73.5,32,34,31,0.914,42.3,43.3,41.8,5.042,5.4,245,7.8,6.8,0.00064,0.00093,72.6,73.0,11,0,.,.,16.32,0.00,0.00
15min,AgWx,beryljct,423,06AUG2019:23:30:00,74.9,12.95,74.8,75.7,74.6,75.9,73.5,31,33,29,0.904,41.8,42.9,40.9,5.809,6.4,236,7.4,9.2,0.00078,0.00109,72.3,72.9,11,0,.,.,16.32,0.00,0.00
15min,AgWx,bigpiney,439,06AUG2019:00:00:00,56.2,12.72,51.2,51.0,49.5,51.1,47.3,60,67,55,0.708,36.2,36.9,35.6,5.13,6.1,239,7.1,7.3,0.00031,0.00040,56.5,53.2,52,0,0,0.0,4.10,0.00,0.00
15min,AgWx,bigpiney,439,06AUG2019:00:15:00,55.3,12.71,48.8,48.8,49.7,51.0,48.4,60,64,56,0.732,36.2,36.7,35.7,6.445,6.3,212,9.3,8.1,0.00032,0.00042,56.4,53.2,52,0,0,0.0,4.10,0.00,0.00
15min,AgWx,bigpiney,439,06AUG2019:00:30:00,54.4,12.7,49.6,48.7,48.9,50.4,47.4,62,65,58,0.722,36.3,36.6,36.0,2.894,6.3,223,11,7.7,0.00030,0.00039,56.4,53.2,52,0,0,0.0,4.10,0.00,0.00
15min,AgWx,bigpiney,439,06AUG2019:00:45:00,53.8,12.7,55.4,54.3,51.6,54.4,48.8,54,62,45,0.656,35.2,36.4,33.7,4.932,4.3,290,16,6.2,0.00031,0.00042,56.3,53.2,52,0,0,0.0,4.10,0.00,0.00
15min,AgWx,bigpiney,439,06AUG2019:01:00:00,53.7,12.69,48.4,49.8,53.8,55.7,49.8,47,55,43,0.675,33.8,34.5,33.3,0.175,4.9,311,27,8.0,0.00041,0.00056,56.2,53.2,52,0,0,0.0,4.10,0.00,0.00
15min,AgWx,bigpiney,439,06AUG2019:01:15:00,53.6,12.67,47.5,47.4,49.7,50.3,47.4,56,62,55,0.688,34.8,35.1,34.5,1.951,2.1,352,31,3.4,0.00017,0.00025,56.2,53.2,52,0,0,0.0,4.10,0.00,0.00
15min,AgWx,bigpiney,439,06AUG2019:01:30:00,53.2,12.66,47.8,48.4,48.7,49.3,47.4,60,62,58,0.708,35.5,36.2,34.9,4.187,0.8,209,42,4.2,0.00006,0.00011,56.1,53.2,52,0,0,0.0,4.10,0.00,0.00
15min,AgWx,bigpiney,439,06AUG2019:01:45:00,52.4,12.66,43.2,43.3,45.5,49.4,43.0,68,74,59,0.698,35.3,35.9,34.9,4.231,4.4,201,7.6,5.2,0.00019,0.00026,56.0,53.2,52,0,0,0.0,4.10,0.00,0.00
15min,AgWx,bigpiney,439,06AUG2019:02:00:00,51.2,12.65,42.1,42.2,42.5,43.3,42.1,75,76,74,0.691,35.2,35.5,34.9,2.938,4.1,209,8.3,5.6,0.00013,0.00017,56.0,53.2,52,0,0,0.0,4.10,0.00,0.00
15min,AgWx,bigpiney,439,06AUG2019:02:15:00,50.0,12.64,41.8,41.5,42.2,42.8,41.2,75,78,74,0.691,35.0,35.5,34.4,2.302,2.9,210,8.7,3.9,0.00010,0.00014,55.9,53.2,52,0,0,0.0,4.10,0.00,0.00
15min,AgWx,bigpiney,439,06AUG2019:02:30:00,49.0,12.63,46.8,44.8,42.6,44.8,41.4,74,78,69,0.691,34.9,35.5,34.4,1.513,1.5,208,7.2,2.4,0.00006,0.00009,55.8,53.2,52,0,0,0.0,4.10,0.00,0.00
15min,AgWx,bigpiney,439,06AUG2019:02:45:00,48.1,12.62,45.6,46.0,45.7,46.4,45.0,65,68,63,0.672,34.5,35.1,34.1,0.153,1.2,234,11,2.5,0.00008,0.00012,55.7,53.2,52,0,0,0.0,4.10,0.00,0.00
15min,AgWx,bigpiney,439,06AUG2019:03:00:00,47.3,12.61,47.2,47.2,46.9,47.9,45.7,62,64,60,0.681,34.6,34.9,33.9,3.464,1.2,2.4,34,3.8,0.00008,0.00013,55.6,53.2,52,0,0,0.0,4.10,0.00,0.00
15min,AgWx,bigpiney,439,06AUG2019:03:15:00,46.9,12.6,46.0,45.5,45.0,47.1,43.6,66,69,62,0.676,34.3,34.7,33.7,2.499,2.0,305,49,3.4,0.00012,0.00017,55.6,53.2,52,0,0,0.0,4.10,0.00,0.00
15min,AgWx,bigpiney,439,06AUG2019:03:30:00,46.7,12.59,41.6,42.5,43.8,45.6,42.5,69,72,64,0.653,34.2,35.0,33.3,3.946,3.5,233,15,5.2,0.00015,0.00021,55.5,53.2,52,0,0,0.0,4.10,0.00,0.00
15min,AgWx,bigpiney,439,06AUG2019:03:45:00,46.1,12.58,42.3,42.2,41.5,42.4,40.8,76,78,71,0.689,34.5,35.3,33.7,3.354,3.5,233,12,4.5,0.00011,0.00015,55.4,53.2,52,0,0,0.0,4.10,0.00,0.00
15min,AgWx,bigpiney,439,06AUG2019:04:00:00,45.5,12.57,39.9,39.4,40.0,42.1,38.6,80,85,75,0.687,34.2,35.2,33.1,3.705,3.6,231,13,4.3,0.00009,0.00012,55.3,53.2,52,0,0,0.0,4.10,0.00,0.00
15min,AgWx,bigpiney,439,06AUG2019:04:15:00,44.9,12.56,41.5,40.8,40.4,41.0,39.5,81,84,79,0.698,35.1,35.5,34.6,1.907,3.4,241,15,4.3,0.00008,0.00011,55.3,53.2,52,0,0,0.0,4.10,0.00,0.00
15min,AgWx,bigpiney,439,06AUG2019:04:30:00,44.5,12.55,39.6,38.7,39.4,41.4,38.4,80,82,77,0.643,33.9,35.7,33.1,3.508,2.5,194,25,3.9,0.00006,0.00009,55.2,53.2,52,0,0,0.0,4.10,0.00,0.00
15min,AgWx,bigpiney,439,06AUG2019:04:45:00,44.1,12.55,38.5,38.4,38.4,39.7,37.6,80,82,77,0.634,32.8,33.6,32.3,4.121,3.9,213,13,4.6,0.00009,0.00012,55.1,53.2,52,0,0,0.0,4.10,0.00,0.00
15min,AgWx,bigpiney,439,06AUG2019:05:00:00,43.6,12.53,37.9,38.1,38.3,38.7,37.9,82,83,80,0.643,33.2,33.5,32.6,4.669,4.7,215,6.8,5.7,0.00009,0.00012,55.0,53.2,52,0,0,0.0,4.10,0.00,0.00
15min,AgWx,bigpiney,439,06AUG2019:05:15:00,43.2,12.52,39.1,38.1,37.7,38.1,37.5,84,85,83,0.660,33.3,34.0,33.0,5.217,3.8,218,7.7,5.2,0.00007,0.00010,54.9,53.1,52,2,0,0.0,4.10,0.00,0.00
15min,AgWx,bigpiney,439,06AUG2019:05:30:00,43.0,12.54,38.1,38.2,38.4,38.8,38.2,83,85,82,0.653,33.8,34.1,33.6,3.003,4.0,223,6.2,5.2,0.00009,0.00012,54.8,53.2,52,10,0,0.0,4.10,0.00,0.00
15min,AgWx,bigpiney,439,06AUG2019:05:45:00,42.8,12.55,39.9,38.9,38.2,38.9,37.6,84,85,82,0.657,33.7,34.1,33.3,1.403,2.7,245,9.4,4.3,-0.00026,-0.00022,54.7,53.1,52,24,0,0.0,4.10,0.00,0.00
15min,AgWx,bigpiney,439,06AUG2019:06:00:00,42.8,12.56,40.7,40.5,40.0,40.6,39.0,79,82,77,0.670,33.9,34.3,33.7,1.118,1.9,262,7.0,2.7,-0.00009,-0.00004,54.7,53.1,52,46,0,0.0,4.10,0.00,0.00
15min,AgWx,bigpiney,439,06AUG2019:06:15:00,43.1,12.62,43.0,41.8,41.2,41.8,40.4,79,81,76,0.727,35.1,36.5,34.3,1.403,1.5,252,11,2.1,0.00007,0.00012,54.6,53.1,52,76,0,0.0,4.10,0.00,0.00
15min,AgWx,bigpiney,439,06AUG2019:06:30:00,43.8,12.62,44.3,43.9,43.2,43.9,41.9,80,83,76,0.808,37.5,39.0,35.8,2.631,2.2,234,21,3.3,0.00028,0.00036,54.5,53.1,52,106,0,0.0,4.10,0.00,0.00
15min,AgWx,bigpiney,439,06AUG2019:06:45:00,45.0,12.68,47.8,46.9,45.4,46.9,43.9,80,83,77,0.850,39.7,40.5,39.1,1.052,3.0,233,9.0,4.5,0.00050,0.00062,54.4,53.0,53,138,0,0.0,4.10,0.00,0.00
15min,AgWx,bigpiney,439,06AUG2019:07:00:00,46.8,12.75,50.5,50.1,48.6,50.1,47.0,74,78,71,0.873,40.5,41.6,39.6,0.68,0.5,204,15,1.3,0.00068,0.00075,54.3,53.0,53,179,0,0.0,4.10,0.00,0.00
15min,AgWx,bigpiney,439,06AUG2019:07:15:00,48.9,12.88,52.4,51.6,51.2,52.1,50.1,70,73,67,0.910,41.8,43.6,40.3,0,0.5,96,26,1.8,0.00102,0.00111,54.2,53.0,53,241,0,0.0,4.10,0.00,0.00
15min,AgWx,bigpiney,439,06AUG2019:07:30:00,51.3,13.15,53.9,54.1,52.9,54.4,51.6,64,70,59,0.868,40.8,42.3,39.2,1.6,0.5,81,21,1.8,0.00138,0.00150,54.1,53.0,53,305,0,0.0,4.10,0.00,0.00
15min,AgWx,bigpiney,439,06AUG2019:07:45:00,53.5,13.39,56.7,56.6,55.2,56.7,54.0,61,64,58,0.929,42.1,44.1,40.0,3.179,1.4,129,19,3.4,0.00181,0.00202,54.1,53.0,53,364,0,0.0,4.10,0.00,0.00
15min,AgWx,bigpiney,439,06AUG2019:08:00:00,55.7,13.6,59.6,57.9,57.4,58.0,56.6,61,64,56,0.980,44.0,45.5,41.1,1.293,1.8,99,32,3.6,0.00209,0.00236,54.0,53.0,53,393,0,0.0,4.10,0.00,0.00
15min,AgWx,bigpiney,439,06AUG2019:08:15:00,58.1,13.77,59.9,59.9,59.0,60.0,58.0,56,61,52,0.981,43.5,45.4,41.9,2.017,1.0,103,29,2.7,0.00251,0.00276,53.9,53.0,53,463,0,0.0,4.10,0.00,0.00
15min,AgWx,bigpiney,439,06AUG2019:08:30:00,60.5,14.4,61.3,61.0,60.3,61.0,59.9,54,56,51,0.930,43.5,44.5,42.3,2.28,1.7,101,28,3.7,0.00274,0.00307,53.9,52.9,53,478,0,0.0,4.10,0.00,0.00